| time (UTC) | temp C | wind direction | speed KPH | gust KPH | rain 1hr cm | rain 24hr cm | rain mn cm | humidity % | barometer mb |
| 20260502130703 | 11 | 316 | 0.0 | 4.8 | 0.00 | 1.22 | 0.00 | 95 | 1021.1 |
| 20260502130204 | 11 | 302 | 1.6 | 4.8 | 0.00 | 1.24 | 0.00 | 96 | 1021.0 |
| 20260502123703 | 10 | 319 | 1.6 | 4.8 | 0.00 | 1.42 | 0.00 | 95 | 1020.6 |
| 20260502123203 | 10 | 311 | 0.0 | 4.8 | 0.00 | 1.45 | 0.00 | 96 | 1020.5 |
| 20260502122704 | 10 | 286 | 0.0 | 3.2 | 0.00 | 1.47 | 0.00 | 95 | 1020.2 |
| 20260502122204 | 10 | 316 | 0.0 | 3.2 | 0.00 | 1.50 | 0.00 | 95 | 1020.2 |
| 20260502121203 | 10 | 303 | 0.0 | 3.2 | 0.00 | 1.52 | 0.00 | 95 | 1020.1 |
| 20260502120704 | 10 | 315 | 0.0 | 0.0 | 0.00 | 1.57 | 0.00 | 95 | 1020.1 |
| 20260502115704 | 10 | 315 | 0.0 | 3.2 | 0.00 | 1.63 | 0.00 | 95 | 1020.1 |
| 20260502115203 | 10 | 333 | 0.0 | 3.2 | 0.00 | 1.65 | 0.00 | 95 | 1020.0 |
| 20260502114703 | 10 | 333 | 0.0 | 3.2 | 0.00 | 1.70 | 0.00 | 95 | 1019.9 |
| 20260502114203 | 10 | 336 | 1.6 | 3.2 | 0.00 | 1.70 | 0.00 | 95 | 1019.8 |
| 20260502113703 | 10 | 338 | 0.0 | 3.2 | 0.00 | 1.70 | 0.00 | 95 | 1019.7 |
| 20260502113203 | 10 | 340 | 0.0 | 3.2 | 0.00 | 1.70 | 0.00 | 95 | 1019.8 |
| 20260502112704 | 10 | 340 | 1.6 | 3.2 | 0.00 | 1.70 | 0.00 | 95 | 1019.8 |
| 20260502112204 | 10 | 345 | 1.6 | 4.8 | 0.00 | 1.70 | 0.00 | 95 | 1019.6 |
| 20260502111703 | 10 | 314 | 0.0 | 3.2 | 0.00 | 1.70 | 0.00 | 95 | 1019.7 |
| 20260502111204 | 10 | 355 | 0.0 | 3.2 | 0.00 | 1.70 | 0.00 | 95 | 1019.7 |
| 20260502110203 | 10 | 341 | 0.0 | 1.6 | 0.00 | 1.70 | 0.00 | 95 | 1019.3 |
| 20260502105703 | 10 | 343 | 1.6 | 4.8 | 0.00 | 1.70 | 0.00 | 95 | 1019.4 |
| 20260502105204 | 10 | 343 | 0.0 | 4.8 | 0.00 | 1.70 | 0.00 | 95 | 1019.3 |
| 20260502104204 | 10 | 343 | 0.0 | 4.8 | 0.00 | 1.70 | 0.00 | 95 | 1019.3 |
| 20260502103704 | 10 | 320 | 1.6 | 3.2 | 0.00 | 1.70 | 0.00 | 95 | 1019.1 |
| 20260502102704 | 10 | 337 | 0.0 | 3.2 | 0.00 | 1.70 | 0.00 | 95 | 1018.9 |
| 20260502102204 | 10 | 336 | 1.6 | 8.0 | 0.00 | 1.70 | 0.00 | 95 | 1018.9 |
| 20260502101704 | 10 | 314 | 1.6 | 4.8 | 0.00 | 1.70 | 0.00 | 95 | 1018.8 |
| 20260502101204 | 10 | 285 | 0.0 | 4.8 | 0.00 | 1.73 | 0.00 | 95 | 1018.6 |
| 20260502100703 | 10 | 289 | 0.0 | 1.6 | 0.00 | 1.73 | 0.00 | 95 | 1018.4 |
| 20260502100203 | 10 | 286 | 0.0 | 4.8 | 0.00 | 1.75 | 0.00 | 95 | 1018.3 |
| 20260502091203 | 10 | 313 | 0.0 | 4.8 | 0.00 | 1.98 | 0.00 | 95 | 1017.9 |
| 20260502090204 | 10 | 301 | 1.6 | 4.8 | 0.00 | 1.98 | 0.00 | 95 | 1017.8 |
| 20260502071204 | 11 | 355 | 0.0 | 1.6 | 0.00 | 1.98 | 0.00 | 94 | 1017.3 |
| 20260502065204 | 11 | 7 | 0.0 | 1.6 | 0.00 | 1.98 | 0.00 | 93 | 1017.6 |
| 20260502064203 | 11 | 317 | 0.0 | 3.2 | 0.00 | 1.98 | 0.00 | 93 | 1017.6 |
| 20260502063704 | 11 | 293 | 0.0 | 4.8 | 0.00 | 1.98 | 0.00 | 93 | 1017.7 |
| 20260502062704 | 11 | 278 | 0.0 | 4.8 | 0.00 | 1.98 | 0.00 | 93 | 1017.6 |
| 20260502062204 | 11 | 262 | 0.0 | 3.2 | 0.00 | 1.98 | 0.00 | 93 | 1017.6 |
| 20260502061704 | 11 | 308 | 0.0 | 4.8 | 0.00 | 1.98 | 0.00 | 93 | 1017.7 |
| 20260502061203 | 11 | 22 | 1.6 | 4.8 | 0.00 | 1.98 | 0.00 | 92 | 1017.6 |
| 20260502060704 | 11 | 44 | 0.0 | 4.8 | 0.00 | 1.98 | 0.00 | 92 | 1017.6 |
| 20260502060203 | 11 | 279 | 1.6 | 4.8 | 0.00 | 1.98 | 0.00 | 92 | 1017.6 |
| 20260502055703 | 11 | 35 | 1.6 | 11.3 | 0.00 | 1.98 | 0.00 | 92 | 1017.7 |
| 20260502055204 | 11 | 48 | 1.6 | 4.8 | 0.00 | 1.98 | 0.00 | 92 | 1017.6 |
| 20260502054704 | 11 | 314 | 0.0 | 3.2 | 0.00 | 1.98 | 0.00 | 91 | 1017.6 |
| 20260502054203 | 11 | 24 | 0.0 | 3.2 | 0.00 | 1.98 | 0.00 | 91 | 1017.7 |
| 20260502053204 | 11 | 273 | 0.0 | 3.2 | 0.00 | 1.98 | 0.00 | 91 | 1017.7 |
| 20260502052703 | 11 | 39 | 1.6 | 4.8 | 0.00 | 1.98 | 0.00 | 91 | 1017.7 |
| 20260502052203 | 11 | 295 | 0.0 | 4.8 | 0.00 | 1.98 | 0.00 | 90 | 1017.8 |
| 20260502051704 | 11 | 37 | 0.0 | 4.8 | 0.00 | 1.98 | 0.00 | 90 | 1017.6 |
| 20260502051203 | 11 | 17 | 0.0 | 3.2 | 0.00 | 1.98 | 0.00 | 90 | 1017.6 |
| 20260502050703 | 11 | 19 | 1.6 | 4.8 | 0.00 | 1.98 | 0.00 | 90 | 1017.7 |
| 20260502050203 | 11 | 56 | 0.0 | 4.8 | 0.00 | 1.98 | 0.00 | 90 | 1017.6 |
| 20260502045703 | 11 | 20 | 0.0 | 3.2 | 0.00 | 1.98 | 3.33 | 90 | 1017.6 |
| 20260502045203 | 11 | 304 | 0.0 | 4.8 | 0.00 | 1.98 | 3.33 | 89 | 1017.7 |
| 20260502044703 | 11 | 50 | 0.0 | 8.0 | 0.00 | 1.98 | 3.33 | 89 | 1017.7 |
| 20260502044204 | 11 | 197 | 0.0 | 4.8 | 0.00 | 1.98 | 3.33 | 89 | 1017.6 |
| 20260502043704 | 11 | 272 | 1.6 | 4.8 | 0.00 | 1.98 | 3.33 | 89 | 1017.5 |
| 20260502043204 | 11 | 21 | 0.0 | 8.0 | 0.00 | 1.98 | 3.33 | 89 | 1017.5 |
| 20260502042704 | 11 | 3 | 3.2 | 11.3 | 0.00 | 1.98 | 3.33 | 90 | 1017.4 |
| 20260502042203 | 11 | 9 | 3.2 | 14.5 | 0.00 | 1.98 | 3.33 | 90 | 1017.4 |
| 20260502041703 | 11 | 288 | 3.2 | 16.1 | 0.00 | 1.98 | 3.33 | 91 | 1017.4 |
| 20260502041203 | 11 | 48 | 4.8 | 14.5 | 0.00 | 1.98 | 3.33 | 91 | 1017.4 |
| 20260502040704 | 11 | 350 | 4.8 | 19.3 | 0.00 | 1.98 | 3.33 | 92 | 1017.3 |
| 20260502040203 | 12 | 30 | 1.6 | 8.0 | 0.00 | 1.98 | 3.33 | 93 | 1017.2 |
| 20260502035704 | 12 | 16 | 4.8 | 14.5 | 0.00 | 1.98 | 3.33 | 93 | 1017.1 |
| 20260502035203 | 12 | 318 | 3.2 | 16.1 | 0.00 | 1.98 | 3.33 | 93 | 1017.1 |
| 20260502034704 | 12 | 351 | 3.2 | 8.0 | 0.00 | 1.98 | 3.33 | 94 | 1017.0 |
| 20260502034203 | 12 | 307 | 1.6 | 9.7 | 0.00 | 1.98 | 3.33 | 94 | 1017.0 |
| 20260502033204 | 12 | 356 | 1.6 | 9.7 | 0.00 | 1.98 | 3.33 | 94 | 1017.1 |
| 20260502032704 | 12 | 315 | 3.2 | 11.3 | 0.00 | 1.98 | 3.33 | 94 | 1017.0 |
| 20260502032204 | 12 | 0 | 1.6 | 12.9 | 0.00 | 1.98 | 3.33 | 95 | 1017.0 |
| 20260502031704 | 12 | 324 | 1.6 | 4.8 | 0.00 | 1.98 | 3.33 | 94 | 1016.9 |
| 20260502031203 | 12 | 350 | 3.2 | 16.1 | 0.00 | 1.98 | 3.33 | 95 | 1016.8 |
| 20260502030204 | 12 | 223 | 1.6 | 4.8 | 0.00 | 1.98 | 3.33 | 95 | 1016.6 |
| 20260502025703 | 12 | 326 | 3.2 | 14.5 | 0.00 | 1.98 | 3.33 | 95 | 1016.6 |
| 20260502025204 | 12 | 331 | 3.2 | 9.7 | 0.00 | 1.98 | 3.33 | 95 | 1016.5 |
| 20260502024703 | 12 | 328 | 3.2 | 9.7 | 0.00 | 1.98 | 3.33 | 95 | 1016.4 |
| 20260502024204 | 12 | 16 | 3.2 | 14.5 | 0.00 | 1.98 | 3.33 | 95 | 1016.3 |
| 20260502023704 | 12 | 290 | 4.8 | 9.7 | 0.00 | 1.98 | 3.33 | 95 | 1016.3 |
| 20260502023203 | 12 | 306 | 3.2 | 14.5 | 0.00 | 1.98 | 3.33 | 96 | 1016.3 |
| 20260502022704 | 12 | 307 | 4.8 | 16.1 | 0.00 | 1.98 | 3.33 | 96 | 1016.2 |
| 20260502022203 | 12 | 65 | 3.2 | 8.0 | 0.00 | 1.98 | 3.33 | 96 | 1016.0 |
| 20260502021704 | 12 | 64 | 1.6 | 4.8 | 0.00 | 1.98 | 3.33 | 96 | 1016.0 |
| 20260502021203 | 12 | 351 | 0.0 | 8.0 | 0.00 | 1.98 | 3.33 | 96 | 1015.9 |
| 20260502020203 | 12 | 39 | 1.6 | 8.0 | 0.00 | 1.98 | 3.33 | 96 | 1015.6 |
| 20260502015704 | 12 | 359 | 3.2 | 9.7 | 0.00 | 1.98 | 3.33 | 96 | 1015.5 |
| 20260502015203 | 12 | 321 | 3.2 | 8.0 | 0.00 | 2.21 | 3.33 | 96 | 1015.4 |
| 20260502014703 | 12 | 288 | 1.6 | 9.7 | 0.00 | 2.24 | 3.33 | 96 | 1015.4 |
| 20260502014203 | 12 | 0 | 4.8 | 14.5 | 0.00 | 2.24 | 3.33 | 96 | 1015.1 |
| 20260502013704 | 12 | 0 | 1.6 | 12.9 | 0.00 | 2.24 | 3.33 | 96 | 1015.0 |
| 20260502013204 | 12 | 313 | 1.6 | 11.3 | 0.00 | 2.24 | 3.33 | 96 | 1015.0 |
| 20260502012704 | 12 | 32 | 3.2 | 19.3 | 0.00 | 2.24 | 3.33 | 96 | 1014.9 |
| 20260502012203 | 12 | 293 | 1.6 | 11.3 | 0.00 | 2.24 | 3.33 | 96 | 1014.9 |
| 20260502011704 | 12 | 351 | 3.2 | 12.9 | 0.00 | 2.24 | 3.33 | 96 | 1014.8 |
| 20260502011203 | 12 | 26 | 4.8 | 14.5 | 0.00 | 2.24 | 3.33 | 96 | 1014.9 |
| 20260502010704 | 12 | 321 | 3.2 | 14.5 | 0.00 | 2.24 | 3.33 | 96 | 1014.8 |
| 20260502010204 | 12 | 353 | 3.2 | 16.1 | 0.00 | 2.24 | 3.33 | 96 | 1014.6 |
| 20260502005703 | 12 | 20 | 3.2 | 12.9 | 0.00 | 2.24 | 3.33 | 96 | 1014.6 |
| 20260502005204 | 12 | 322 | 3.2 | 16.1 | 0.00 | 2.24 | 3.33 | 96 | 1014.4 |
| 20260502004704 | 12 | 31 | 3.2 | 9.7 | 0.00 | 2.24 | 3.33 | 96 | 1014.1 |
| 20260502003704 | 12 | 46 | 3.2 | 9.7 | 0.00 | 2.24 | 3.33 | 96 | 1013.8 |
| 20260502003203 | 12 | 350 | 1.6 | 9.7 | 0.00 | 2.24 | 3.33 | 96 | 1013.9 |
| 20260502002204 | 12 | 44 | 4.8 | 19.3 | 0.00 | 2.24 | 3.33 | 96 | 1013.6 |
| 20260502001703 | 12 | 58 | 4.8 | 20.9 | 0.00 | 2.24 | 3.33 | 96 | 1013.7 |
| 20260502001204 | 12 | 26 | 4.8 | 19.3 | 0.00 | 2.24 | 3.33 | 96 | 1013.7 |
| 20260502000703 | 12 | 38 | 3.2 | 12.9 | 0.00 | 2.24 | 3.33 | 96 | 1013.7 |
| 20260502000204 | 12 | 335 | 4.8 | 14.5 | 0.00 | 2.24 | 3.33 | 96 | 1013.9 |
| 20260501235704 | 12 | 313 | 3.2 | 19.3 | 0.00 | 2.24 | 3.33 | 96 | 1014.2 |
| 20260501234704 | 12 | 288 | 3.2 | 14.5 | 0.00 | 2.24 | 3.33 | 96 | 1013.9 |
| 20260501233704 | 13 | 341 | 4.8 | 19.3 | 0.00 | 2.24 | 3.33 | 97 | 1013.7 |
| 20260501233204 | 13 | 317 | 3.2 | 19.3 | 0.03 | 2.24 | 3.33 | 96 | 1013.8 |
| 20260501232703 | 13 | 349 | 3.2 | 16.1 | 0.03 | 2.24 | 3.33 | 96 | 1013.7 |
| 20260501232203 | 13 | 12 | 4.8 | 14.5 | 0.03 | 2.24 | 3.33 | 97 | 1013.6 |
| 20260501231704 | 13 | 19 | 4.8 | 14.5 | 0.03 | 2.24 | 3.33 | 96 | 1013.4 |
| 20260501231203 | 13 | 336 | 4.8 | 12.9 | 0.05 | 2.24 | 3.33 | 97 | 1013.3 |
| 20260501230704 | 13 | 15 | 6.4 | 14.5 | 0.05 | 2.24 | 3.33 | 97 | 1013.2 |
| 20260501230203 | 13 | 27 | 3.2 | 12.9 | 0.10 | 2.24 | 3.33 | 97 | 1013.0 |
| 20260501225704 | 13 | 353 | 3.2 | 16.1 | 0.13 | 2.24 | 3.33 | 97 | 1013.1 |
| 20260501225203 | 13 | 348 | 6.4 | 22.5 | 0.20 | 2.24 | 3.33 | 97 | 1013.0 |
| 20260501224704 | 13 | 312 | 6.4 | 16.1 | 0.30 | 2.24 | 3.33 | 97 | 1012.9 |
| 20260501224203 | 13 | 262 | 3.2 | 20.9 | 0.36 | 2.24 | 3.33 | 97 | 1012.7 |
| 20260501223703 | 13 | 1 | 4.8 | 19.3 | 0.38 | 2.24 | 3.33 | 97 | 1012.6 |
| 20260501223204 | 13 | 33 | 3.2 | 8.0 | 0.36 | 2.21 | 3.30 | 97 | 1012.5 |
| 20260501222203 | 13 | 290 | 4.8 | 14.5 | 0.36 | 2.21 | 3.30 | 97 | 1013.0 |
| 20260501221704 | 13 | 280 | 3.2 | 12.9 | 0.36 | 2.21 | 3.30 | 97 | 1012.7 |
| 20260501221203 | 13 | 317 | 6.4 | 16.1 | 0.33 | 2.18 | 3.28 | 97 | 1012.6 |
| 20260501220703 | 13 | 285 | 3.2 | 9.7 | 0.33 | 2.18 | 3.28 | 97 | 1012.6 |
| 20260501220204 | 13 | 20 | 4.8 | 16.1 | 0.28 | 2.13 | 3.23 | 97 | 1012.5 |
| 20260501215704 | 14 | 288 | 3.2 | 9.7 | 0.25 | 2.11 | 3.20 | 97 | 1012.7 |
| 20260501215203 | 14 | 38 | 3.2 | 14.5 | 0.18 | 2.03 | 3.12 | 97 | 1012.3 |
| 20260501214703 | 14 | 347 | 3.2 | 8.0 | 0.08 | 1.93 | 3.02 | 97 | 1012.4 |
| 20260501214204 | 14 | 316 | 1.6 | 8.0 | 0.03 | 1.88 | 2.97 | 97 | 1012.6 |
| 20260501213703 | 14 | 320 | 4.8 | 14.5 | 0.00 | 1.85 | 2.95 | 97 | 1012.0 |
| 20260501213204 | 14 | 341 | 3.2 | 19.3 | 0.00 | 1.85 | 2.95 | 97 | 1011.7 |
| 20260501212704 | 14 | 271 | 3.2 | 4.8 | 0.00 | 1.85 | 2.95 | 97 | 1011.9 |
| 20260501212204 | 14 | 339 | 4.8 | 11.3 | 0.00 | 1.85 | 2.95 | 97 | 1011.5 |
| 20260501211703 | 14 | 349 | 3.2 | 11.3 | 0.00 | 1.85 | 2.95 | 97 | 1011.1 |
| 20260501211203 | 14 | 287 | 3.2 | 19.3 | 0.00 | 1.85 | 2.95 | 97 | 1010.9 |
| 20260501210703 | 14 | 317 | 4.8 | 11.3 | 0.00 | 1.85 | 2.95 | 97 | 1010.4 |
| 20260501210203 | 14 | 160 | 0.0 | 8.0 | 0.03 | 1.88 | 2.95 | 97 | 1010.6 |
| 20260501205703 | 14 | 301 | 3.2 | 16.1 | 0.03 | 1.88 | 2.95 | 97 | 1010.6 |
| 20260501205203 | 14 | 10 | 3.2 | 19.3 | 0.03 | 1.88 | 2.95 | 97 | 1010.3 |
| 20260501204704 | 14 | 345 | 3.2 | 16.1 | 0.05 | 1.88 | 2.95 | 97 | 1010.0 |
| 20260501204204 | 15 | 279 | 3.2 | 11.3 | 0.05 | 1.88 | 2.95 | 97 | 1010.4 |
| 20260501203703 | 14 | 55 | 0.0 | 12.9 | 0.08 | 1.88 | 2.95 | 97 | 1010.0 |
| 20260501202703 | 15 | 31 | 1.6 | 19.3 | 0.08 | 1.88 | 2.95 | 97 | 1009.8 |
| 20260501201704 | 15 | 332 | 4.8 | 14.5 | 0.08 | 1.88 | 2.95 | 97 | 1010.6 |
| 20260501201204 | 15 | 270 | 1.6 | 12.9 | 0.08 | 1.88 | 2.95 | 97 | 1010.8 |
| 20260501200703 | 15 | 294 | 1.6 | 4.8 | 0.08 | 1.88 | 2.95 | 97 | 1010.9 |
| 20260501200204 | 15 | 347 | 3.2 | 8.0 | 0.05 | 1.85 | 2.92 | 97 | 1011.0 |
| 20260501195703 | 15 | 18 | 3.2 | 11.3 | 0.05 | 1.85 | 2.92 | 97 | 1011.3 |
| 20260501194203 | 15 | 48 | 1.6 | 14.5 | 0.05 | 1.83 | 2.90 | 97 | 1011.6 |
| 20260501193704 | 15 | 25 | 3.2 | 12.9 | 0.05 | 1.80 | 2.87 | 97 | 1011.5 |
| 20260501193204 | 15 | 337 | 3.2 | 16.1 | 0.10 | 1.80 | 2.87 | 97 | 1012.2 |
| 20260501192704 | 15 | 11 | 1.6 | 14.5 | 0.15 | 1.80 | 2.87 | 97 | 1011.5 |
| 20260501192204 | 15 | 339 | 1.6 | 9.7 | 0.18 | 1.80 | 2.87 | 97 | 1011.6 |
| 20260501191703 | 15 | 322 | 0.0 | 0.0 | 0.20 | 1.80 | 2.87 | 97 | 1011.7 |
| 20260501191204 | 15 | 17 | 1.6 | 11.3 | 0.23 | 1.80 | 2.87 | 97 | 1011.3 |
| 20260501190703 | 15 | 287 | 4.8 | 16.1 | 0.25 | 1.80 | 2.87 | 97 | 1010.9 |
| 20260501190204 | 15 | 289 | 3.2 | 14.5 | 0.28 | 1.80 | 2.87 | 97 | 1010.6 |
| 20260501185704 | 14 | 356 | 4.8 | 12.9 | 0.30 | 1.80 | 2.87 | 97 | 1010.5 |
| 20260501185204 | 14 | 0 | 1.6 | 14.5 | 0.33 | 1.80 | 2.87 | 97 | 1010.7 |
| 20260501184703 | 15 | 309 | 6.4 | 20.9 | 0.33 | 1.80 | 2.87 | 97 | 1010.2 |
| 20260501184204 | 15 | 17 | 3.2 | 14.5 | 0.30 | 1.78 | 2.84 | 97 | 1010.2 |
| 20260501183704 | 15 | 346 | 4.8 | 14.5 | 0.28 | 1.75 | 2.82 | 97 | 1011.2 |
| 20260501183203 | 15 | 14 | 1.6 | 9.7 | 0.23 | 1.70 | 2.77 | 97 | 1012.3 |
| 20260501182704 | 15 | 291 | 0.0 | 9.7 | 0.18 | 1.65 | 2.72 | 97 | 1012.2 |
| 20260501181703 | 15 | 297 | 1.6 | 12.9 | 0.13 | 1.60 | 2.67 | 97 | 1011.5 |
| 20260501181204 | 15 | 354 | 3.2 | 11.3 | 0.10 | 1.57 | 2.64 | 97 | 1011.2 |
| 20260501180703 | 15 | 318 | 3.2 | 12.9 | 0.08 | 1.55 | 2.62 | 97 | 1010.9 |
| 20260501175703 | 15 | 349 | 0.0 | 9.7 | 0.03 | 1.50 | 2.57 | 97 | 1011.3 |
| 20260501175203 | 15 | 347 | 1.6 | 11.3 | 0.00 | 1.47 | 2.54 | 97 | 1011.2 |
| 20260501174704 | 15 | 25 | 1.6 | 12.9 | 0.00 | 1.47 | 2.54 | 97 | 1011.7 |
| 20260501174204 | 15 | 18 | 1.6 | 9.7 | 0.00 | 1.50 | 2.54 | 97 | 1011.5 |
| 20260501173704 | 15 | 18 | 1.6 | 11.3 | 0.00 | 1.50 | 2.54 | 97 | 1011.2 |
| 20260501173203 | 15 | 308 | 3.2 | 12.9 | 0.00 | 1.50 | 2.54 | 97 | 1011.1 |
| 20260501172703 | 15 | 30 | 3.2 | 12.9 | 0.00 | 1.50 | 2.54 | 97 | 1011.0 |
| 20260501171704 | 15 | 315 | 3.2 | 4.8 | 0.00 | 1.50 | 2.54 | 97 | 1011.4 |
| 20260501171204 | 15 | 0 | 1.6 | 4.8 | 0.00 | 1.50 | 2.54 | 97 | 1011.1 |
| 20260501170703 | 15 | 25 | 4.8 | 16.1 | 0.03 | 1.50 | 2.54 | 97 | 1010.9 |
| 20260501165704 | 15 | 20 | 1.6 | 14.5 | 0.08 | 1.50 | 2.54 | 97 | 1010.8 |
| 20260501165204 | 15 | 9 | 3.2 | 14.5 | 0.10 | 1.50 | 2.54 | 97 | 1010.7 |
| 20260501164704 | 15 | 325 | 0.0 | 12.9 | 0.13 | 1.50 | 2.54 | 97 | 1010.6 |
| 20260501163704 | 15 | 321 | 0.0 | 16.1 | 0.15 | 1.50 | 2.54 | 97 | 1010.6 |
| 20260501163203 | 15 | 12 | 4.8 | 12.9 | 0.15 | 1.50 | 2.54 | 97 | 1010.4 |
| 20260501161703 | 15 | 90 | 3.2 | 4.8 | 0.15 | 1.50 | 2.54 | 97 | 1009.8 |
| 20260501161204 | 15 | 226 | 0.0 | 9.7 | 0.15 | 1.50 | 2.54 | 97 | 1009.5 |
| 20260501160703 | 15 | 87 | 1.6 | 16.1 | 0.13 | 1.47 | 2.51 | 97 | 1009.9 |
| 20260501160204 | 15 | 41 | 3.2 | 12.9 | 0.08 | 1.42 | 2.46 | 97 | 1011.4 |
| 20260501155704 | 15 | 352 | 0.0 | 1.6 | 0.08 | 1.42 | 2.46 | 97 | 1013.7 |
| 20260501154704 | 15 | 301 | 1.6 | 4.8 | 0.05 | 1.37 | 2.41 | 97 | 1012.8 |
| 20260501154203 | 15 | 33 | 0.0 | 4.8 | 0.03 | 1.35 | 2.39 | 97 | 1012.6 |
| 20260501153704 | 15 | 336 | 1.6 | 8.0 | 0.05 | 1.35 | 2.39 | 97 | 1012.4 |
| 20260501152704 | 15 | 335 | 1.6 | 8.0 | 0.05 | 1.35 | 2.39 | 97 | 1012.4 |
| 20260501152204 | 15 | 44 | 1.6 | 12.9 | 0.08 | 1.37 | 2.39 | 97 | 1012.2 |
| 20260501151704 | 15 | 4 | 1.6 | 12.9 | 0.08 | 1.37 | 2.39 | 97 | 1012.3 |
| 20260501150703 | 15 | 334 | 3.2 | 11.3 | 0.10 | 1.37 | 2.39 | 97 | 1011.9 |
| 20260501150203 | 15 | 338 | 1.6 | 14.5 | 0.13 | 1.37 | 2.39 | 97 | 1011.9 |
| 20260501145703 | 15 | 39 | 4.8 | 14.5 | 0.15 | 1.37 | 2.39 | 97 | 1011.6 |
| 20260501144204 | 15 | 21 | 4.8 | 12.9 | 0.25 | 1.35 | 2.36 | 97 | 1011.3 |